This demonstration page uses our WeatherBlox Daily Observations layout. Learn more.

Hourly Observations for May 3, 2020

Temp ( °F °C ) Dew Point ( °F °C ) Humidity (%) Winds ( mph kmh ) Pressure ( in mb ) Visibility ( mi km ) Precip ( " mm )
12:15 am 00:15 Cloudy 61 16 46 8 59 59 SSW 7 11 29.93 1013 10 16.0934 0 0
12:35 am 00:35 Cloudy 61 16 46 8 59 59 SSW 7 11 29.92 1013 10 16.0934 0 0
12:55 am 00:55 Partly Cloudy 61 16 46 8 59 59 SSW 7 11 29.92 1013 10 16.0934 0 0
1:15 am 01:15 Partly Cloudy 59 15 46 8 63 63 undefined N/A 29.91 1013 10 16.0934 0 0
1:35 am 01:35 Partly Cloudy 59 15 46 8 63 63 S 7 11 29.9 1012 10 16.0934 0 0
1:55 am 01:55 Clear 59 15 46 8 63 63 S 7 11 29.88 1012 10 16.0934 0 0
2:15 am 02:15 Clear 59 15 46 8 63 63 SSW 7 11 29.87 1011 10 16.0934 0 0
2:35 am 02:35 Clear 59 15 46 8 63 63 SW 3 6 29.87 1011 10 16.0934 0 0
2:55 am 02:55 Clear 59 15 48 9 68 68 Calm 29.87 1011 10 16.0934 0 0
3:15 am 03:15 Clear 59 15 46 8 63 63 S 6 9 29.85 1011 10 16.0934 0 0
3:35 am 03:35 Clear 57 14 48 9 72 72 SW 5 7 29.85 1011 10 16.0934 0 0
3:55 am 03:55 Clear 59 15 48 9 68 68 SSW 3 6 29.86 1011 10 16.0934 0 0
4:15 am 04:15 Clear 59 15 48 9 68 68 S 3 6 29.85 1011 10 16.0934 0 0
4:35 am 04:35 Clear 59 15 48 9 68 68 S 6 9 29.86 1011 10 16.0934 0 0
4:55 am 04:55 Clear 59 15 48 9 68 68 S 6 9 29.85 1011 10 16.0934 0 0
5:15 am 05:15 Clear 59 15 50 10 72 72 S 6 9 29.85 1011 10 16.0934 0 0
5:35 am 05:35 Clear 59 15 50 10 72 72 S 5 7 29.86 1011 10 16.0934 0 0
5:55 am 05:55 Clear 59 15 50 10 72 72 S 5 7 29.85 1011 10 16.0934 0 0
6:15 am 06:15 Sunny 57 14 50 10 77 77 Calm 29.86 1011 10 16.0934 0 0
6:35 am 06:35 Sunny 59 15 50 10 72 72 ESE 6 9 29.86 1011 10 16.0934 0 0
6:55 am 06:55 Sunny 59 15 50 10 72 72 ESE 6 9 29.87 1011 10 16.0934 0 0
7:15 am 07:15 Mostly Cloudy 59 15 50 10 72 72 ESE 7 11 29.88 1012 10 16.0934 0 0
7:35 am 07:35 Partly Cloudy 59 15 50 10 72 72 Calm 29.89 1012 10 16.0934 0 0
7:55 am 07:55 Mostly Cloudy 59 15 52 11 77 77 Calm 29.89 1012 10 16.0934 0 0
8:15 am 08:15 Cloudy 59 15 52 11 77 77 Calm 29.89 1012 10 16.0934 0 0
8:35 am 08:35 Mostly Cloudy 59 15 52 11 77 77 Calm 29.89 1012 10 16.0934 0 0
8:55 am 08:55 Mostly Cloudy 61 16 54 12 77 77 Calm 29.89 1012 10 16.0934 0 0
9:15 am 09:15 Partly Cloudy 61 16 52 11 72 72 Calm 29.89 1012 10 16.0934 0 0
9:35 am 09:35 Sunny 63 17 54 12 73 73 Calm 29.88 1012 10 16.0934 0 0
9:55 am 09:55 Partly Cloudy 63 17 57 14 83 83 W 5 7 29.88 1012 10 16.0934 0 0
10:15 am 10:15 Partly Cloudy 66 19 59 15 78 78 W 6 9 29.87 1012 10 16.0934 0 0
10:35 am 10:35 Mostly Cloudy 70 21 59 15 69 69 W 7 11 29.88 1012 10 16.0934 0 0
10:55 am 10:55 Mostly Cloudy 70 21 61 16 73 73 W 7 11 29.88 1012 10 16.0934 0 0
11:15 am 11:15 Partly Cloudy 72 22 61 16 69 69 W 7 11 29.87 1011 10 16.0934 0 0
11:35 am 11:35 Partly Cloudy 72 22 61 16 69 69 WSW 9 15 29.87 1011 10 16.0934 0 0
11:55 am 11:55 Mostly Cloudy 72 22 61 16 69 69 WSW 8 13 29.87 1011 10 16.0934 0 0
12:15 pm 12:15 Mostly Cloudy 72 22 61 16 69 69 SW 7 11 29.87 1011 10 16.0934 0 0
12:35 pm 12:35 Partly Cloudy 72 22 61 16 69 69 WSW 8 13 29.87 1011 10 16.0934 0 0
12:55 pm 12:55 Mostly Cloudy 72 22 63 17 73 73 SW 8 13 29.85 1011 10 16.0934 0 0
1:15 pm 13:15 Partly Cloudy 72 22 63 17 73 73 WSW 8 13 29.85 1011 10 16.0934 0 0
1:35 pm 13:35 Partly Cloudy 73 23 63 17 69 69 W 8 13 29.84 1010 10 16.0934 0 0
1:55 pm 13:55 Sunny 73 23 63 17 69 69 W 8 13 29.84 1010 10 16.0934 0 0
2:15 pm 14:15 Partly Cloudy 75 24 61 16 61 61 SW 10 17 29.83 1010 10 16.0934 0 0
2:35 pm 14:35 Mostly Cloudy 77 25 63 17 61 61 SW 8 13 29.81 1010 10 16.0934 0 0
2:55 pm 14:55 Mostly Cloudy 77 25 63 17 61 61 SW 9 15 29.81 1010 10 16.0934 0 0
3:15 pm 15:15 Mostly Cloudy 77 25 63 17 61 61 W 10 17 29.8 1009 10 16.0934 0 0
3:35 pm 15:35 Cloudy 77 25 61 16 57 57 WSW 9 15 29.79 1009 10 16.0934 0 0
3:55 pm 15:55 Mostly Cloudy 77 25 61 16 57 57 WSW 12 19 29.78 1009 10 16.0934 0 0
4:15 pm 16:15 Partly Cloudy 77 25 61 16 57 57 WSW 5 7 29.78 1009 10 16.0934 0 0
4:35 pm 16:35 Sunny 79 26 61 16 54 54 WNW 10 17 29.77 1008 10 16.0934 0 0
4:55 pm 16:55 Sunny 77 25 61 16 57 57 WNW 6 9 29.76 1008 10 16.0934 0 0
5:15 pm 17:15 Mostly Cloudy 77 25 61 16 57 57 WNW 10 17 29.76 1008 10 16.0934 0 0
5:35 pm 17:35 Cloudy 77 25 61 16 57 57 WNW 6 9 29.76 1008 10 16.0934 0 0
5:55 pm 17:55 Cloudy 75 24 61 16 61 61 WNW 5 7 29.77 1008 10 16.0934 0 0
6:15 pm 18:15 Cloudy 75 24 61 16 61 61 W 3 6 29.76 1008 10 16.0934 0 0
6:35 pm 18:35 Mostly Cloudy 77 25 61 16 57 57 WNW 3 6 29.75 1008 10 16.0934 0 0
6:55 pm 18:55 Mostly Cloudy 75 24 61 16 61 61 WNW 7 11 29.75 1007 10 16.0934 0 0
7:15 pm 19:15 Cloudy 73 23 59 15 61 61 NW 10 17 29.74 1007 10 16.0934 0 0
7:35 pm 19:35 Cloudy 73 23 59 15 61 61 W 9 15 29.74 1007 10 16.0934 0 0
7:55 pm 19:55 Cloudy 73 23 59 15 61 61 W 5 7 29.73 1007 10 16.0934 0 0
8:15 pm 20:15 Cloudy 73 23 59 15 61 61 WSW 3 6 29.73 1007 10 16.0934 0 0
8:35 pm 20:35 Cloudy 73 23 59 15 61 61 W 3 6 29.73 1007 10 16.0934 0 0
8:55 pm 20:55 Cloudy 70 21 61 16 73 73 N 3 6 29.73 1007 10 16.0934 0 0
9:15 pm 21:15 Cloudy 68 20 63 17 83 83 N 5 7 29.72 1006 10 16.0934 0 0
9:35 pm 21:35 Cloudy 68 20 63 17 83 83 NW 5 7 29.74 1007 10 16.0934 0 0
9:55 pm 21:55 Cloudy with Thunderstorms 66 19 63 17 88 88 NNW 10 17 29.75 1008 10 16.0934 0.02 0.508
10:15 pm 22:15 Cloudy with Thunderstorms 64 18 63 17 94 94 N 5 7 29.77 1008 5 8.0467 0.12 3.048
10:35 pm 22:35 Cloudy with Thunderstorms 63 17 63 17 100 100 WSW 5 7 29.79 1009 7 11.26538 0.2 5.08
10:55 pm 22:55 Cloudy with Nearby Thunderstorms 63 17 63 17 100 100 N 5 7 29.76 1008 5 8.0467 0.3 7.62
11:15 pm 23:15 Mostly Cloudy with Nearby Thunderstorms 61 16 61 16 100 100 NNW 3 6 29.74 1007 10 16.0934 0.01 0.254
11:35 pm 23:35 Mostly Cloudy 61 16 61 16 100 100 W 7 11 29.77 1008 10 16.0934 0.02 0.508
11:55 pm 23:55 Cloudy 61 16 61 16 100 100 NW 5 7 29.75 1007 5 8.0467 0.1 2.54

Powered by AerisWeather